TimeCDT,TemperatureF,Dew PointF,Humidity,Sea Level PressureIn,VisibilityMPH,Wind Direction,Wind SpeedMPH,Gust SpeedMPH,PrecipitationIn,Events,Conditions,WindDirDegrees,DateUTC
12:15 AM,70.3,52.3,53,29.92,10.0,NW,8.1,-,N/A,,Clear,310,2013-06-29 05:15:00
12:35 AM,68.5,53.1,58,29.92,10.0,WNW,5.8,-,N/A,,Clear,300,2013-06-29 05:35:00
12:55 AM,67.5,53.4,61,29.92,10.0,WNW,6.9,-,N/A,,Clear,300,2013-06-29 05:55:00
1:15 AM,67.1,53.4,61,29.91,10.0,WNW,6.9,-,N/A,,Clear,300,2013-06-29 06:15:00
1:35 AM,65.8,53.6,65,29.91,10.0,WNW,6.9,-,N/A,,Clear,300,2013-06-29 06:35:00
1:55 AM,64.9,54.0,68,29.91,10.0,WNW,6.9,-,N/A,,Clear,290,2013-06-29 06:55:00
2:15 AM,64.9,54.1,68,29.91,10.0,WNW,8.1,-,N/A,,Clear,290,2013-06-29 07:15:00
2:35 AM,64.8,54.1,68,29.91,10.0,WNW,6.9,-,N/A,,Clear,290,2013-06-29 07:35:00
2:55 AM,65.3,53.8,66,29.91,10.0,WNW,9.2,-,N/A,,Clear,300,2013-06-29 07:55:00
3:15 AM,65.3,54.0,67,29.91,10.0,WNW,8.1,-,N/A,,Clear,300,2013-06-29 08:15:00
3:35 AM,65.1,54.0,67,29.91,10.0,WNW,8.1,-,N/A,,Clear,300,2013-06-29 08:35:00
3:55 AM,64.4,54.0,69,29.91,10.0,WNW,8.1,-,N/A,,Clear,290,2013-06-29 08:55:00
4:15 AM,64.4,54.0,69,29.91,10.0,WNW,6.9,-,N/A,,Clear,290,2013-06-29 09:15:00
4:35 AM,63.5,54.1,72,29.91,10.0,WNW,5.8,-,N/A,,Clear,300,2013-06-29 09:35:00
4:55 AM,63.5,54.0,71,29.91,10.0,WNW,6.9,-,N/A,,Clear,300,2013-06-29 09:55:00
5:15 AM,63.5,54.0,71,29.91,10.0,NW,9.2,-,N/A,,Clear,310,2013-06-29 10:15:00
5:35 AM,64.8,53.8,68,29.91,10.0,NW,9.2,-,N/A,,Clear,310,2013-06-29 10:35:00
5:55 AM,63.5,54.0,71,29.92,10.0,NW,9.2,-,N/A,,Clear,310,2013-06-29 10:55:00
6:15 AM,64.4,54.0,69,29.92,10.0,NW,9.2,-,N/A,,Clear,310,2013-06-29 11:15:00
6:35 AM,63.9,54.1,71,29.92,10.0,WNW,9.2,-,N/A,,Clear,300,2013-06-29 11:35:00
6:55 AM,64.4,54.5,70,29.92,10.0,WNW,11.5,-,N/A,,Clear,300,2013-06-29 11:55:00
7:15 AM,64.4,55.0,72,29.92,10.0,NW,8.1,-,N/A,,Clear,310,2013-06-29 12:15:00
7:35 AM,65.3,55.4,70,29.93,10.0,NW,11.5,-,N/A,,Clear,310,2013-06-29 12:35:00
7:55 AM,66.4,55.9,69,29.92,10.0,NW,11.5,17.3,N/A,,Clear,310,2013-06-29 12:55:00
8:15 AM,67.3,56.3,68,29.92,10.0,WNW,9.2,18.4,N/A,,Clear,300,2013-06-29 13:15:00
8:35 AM,68.4,56.8,67,29.93,10.0,NW,11.5,17.3,N/A,,Clear,320,2013-06-29 13:35:00
8:55 AM,69.4,57.4,65,29.93,10.0,NW,12.7,21.9,N/A,,Clear,310,2013-06-29 13:55:00
9:15 AM,70.2,57.7,65,29.93,10.0,NW,12.7,19.6,N/A,,Clear,310,2013-06-29 14:15:00
9:35 AM,71.2,58.1,63,29.93,10.0,WNW,13.8,25.3,N/A,,Clear,300,2013-06-29 14:35:00
9:55 AM,72.3,55.8,56,29.92,10.0,NW,19.6,28.8,N/A,,Clear,320,2013-06-29 14:55:00
10:15 AM,72.9,55.0,53,29.92,10.0,NW,21.9,29.9,N/A,,Clear,320,2013-06-29 15:15:00
10:35 AM,73.6,54.3,51,29.91,10.0,NW,20.7,28.8,N/A,,Scattered Clouds,320,2013-06-29 15:35:00
10:55 AM,74.3,54.5,50,29.91,10.0,NNW,26.5,32.2,N/A,,Scattered Clouds,330,2013-06-29 15:55:00
11:15 AM,74.3,55.4,52,29.92,10.0,NNW,18.4,34.5,N/A,,Scattered Clouds,330,2013-06-29 16:15:00
11:35 AM,75.0,54.9,49,29.92,10.0,NNW,25.3,33.4,N/A,,Scattered Clouds,340,2013-06-29 16:35:00
11:55 AM,76.1,55.9,50,29.92,10.0,North,20.7,28.8,N/A,,Clear,350,2013-06-29 16:55:00
12:15 PM,75.4,53.8,47,29.92,10.0,NNW,19.6,29.9,N/A,,Scattered Clouds,330,2013-06-29 17:15:00
12:35 PM,75.4,54.9,49,29.92,10.0,NW,20.7,29.9,N/A,,Mostly Cloudy,320,2013-06-29 17:35:00
12:55 PM,76.5,54.7,47,29.92,10.0,NNW,20.7,31.1,N/A,,Scattered Clouds,330,2013-06-29 17:55:00
1:15 PM,76.3,54.5,47,29.92,10.0,NW,20.7,28.8,N/A,,Scattered Clouds,320,2013-06-29 18:15:00
1:35 PM,77.0,55.0,47,29.91,10.0,NW,23.0,33.4,N/A,,Mostly Cloudy,320,2013-06-29 18:35:00
1:55 PM,77.2,55.4,47,29.91,10.0,NNW,20.7,32.2,N/A,,Mostly Cloudy,340,2013-06-29 18:55:00
2:15 PM,77.7,54.1,44,29.91,10.0,NNW,25.3,32.2,N/A,,Scattered Clouds,340,2013-06-29 19:15:00
2:35 PM,77.2,55.2,47,29.91,10.0,NNW,15.0,26.5,N/A,,Mostly Cloudy,330,2013-06-29 19:35:00
2:55 PM,77.0,54.7,46,29.91,10.0,NNW,20.7,28.8,N/A,,Mostly Cloudy,330,2013-06-29 19:55:00
3:15 PM,77.7,55.0,45,29.91,10.0,NNW,20.7,29.9,N/A,,Mostly Cloudy,340,2013-06-29 20:15:00
3:35 PM,78.3,55.2,45,29.91,10.0,NNW,20.7,33.4,N/A,,Mostly Cloudy,340,2013-06-29 20:35:00
3:55 PM,77.4,55.4,47,29.91,10.0,NNW,17.3,26.5,N/A,,Scattered Clouds,340,2013-06-29 20:55:00
4:15 PM,77.9,56.5,48,29.91,10.0,North,18.4,27.6,N/A,,Scattered Clouds,360,2013-06-29 21:15:00
4:35 PM,77.7,55.9,47,29.91,10.0,North,17.3,31.1,N/A,,Scattered Clouds,350,2013-06-29 21:35:00
4:55 PM,77.2,55.6,47,29.92,10.0,NNW,20.7,27.6,N/A,,Mostly Cloudy,340,2013-06-29 21:55:00
5:15 PM,77.9,53.8,43,29.91,10.0,North,24.2,31.1,N/A,,Mostly Cloudy,360,2013-06-29 22:15:00
5:35 PM,76.1,53.6,45,29.91,10.0,North,18.4,26.5,N/A,,Scattered Clouds,350,2013-06-29 22:35:00
5:55 PM,73.8,56.8,55,29.92,10.0,NNE,12.7,-,N/A,,Mostly Cloudy,20,2013-06-29 22:55:00
6:15 PM,75.6,57.2,53,29.92,10.0,North,11.5,17.3,N/A,,Mostly Cloudy,360,2013-06-29 23:15:00
6:35 PM,75.4,54.9,49,29.92,10.0,North,12.7,19.6,N/A,,Scattered Clouds,350,2013-06-29 23:35:00
6:55 PM,75.7,54.5,48,29.92,10.0,North,13.8,19.6,N/A,,Scattered Clouds,360,2013-06-29 23:55:00
7:15 PM,75.6,51.4,43,29.92,10.0,North,16.1,25.3,N/A,,Clear,350,2013-06-30 00:15:00
7:35 PM,74.8,51.3,44,29.92,10.0,North,8.1,-,N/A,,Clear,360,2013-06-30 00:35:00
7:55 PM,73.8,52.7,48,29.92,10.0,North,8.1,-,N/A,,Clear,360,2013-06-30 00:55:00
8:15 PM,73.2,52.5,48,29.93,10.0,North,9.2,-,N/A,,Clear,350,2013-06-30 01:15:00
8:35 PM,71.8,53.1,52,29.93,10.0,NNW,6.9,-,N/A,,Clear,330,2013-06-30 01:35:00
8:55 PM,70.3,53.6,55,29.93,10.0,NW,8.1,-,N/A,,Clear,320,2013-06-30 01:55:00
9:15 PM,69.4,53.6,57,29.93,10.0,NW,8.1,-,N/A,,Clear,320,2013-06-30 02:15:00
9:35 PM,68.5,54.1,60,29.93,10.0,NW,6.9,-,N/A,,Clear,320,2013-06-30 02:35:00
9:55 PM,68.4,54.3,61,29.94,10.0,NNW,6.9,-,N/A,,Scattered Clouds,330,2013-06-30 02:55:00
10:15 PM,68.0,54.5,62,29.95,10.0,NNW,8.1,-,N/A,,Scattered Clouds,330,2013-06-30 03:15:00
10:35 PM,67.5,54.5,63,29.95,10.0,North,5.8,-,N/A,,Mostly Cloudy,350,2013-06-30 03:35:00
10:55 PM,67.1,54.7,64,29.96,10.0,NNE,5.8,-,N/A,,Mostly Cloudy,20,2013-06-30 03:55:00
11:15 PM,66.7,55.4,67,29.96,10.0,NNE,3.5,-,N/A,,Scattered Clouds,20,2013-06-30 04:15:00
11:35 PM,66.2,55.4,68,29.97,10.0,North,4.6,-,N/A,,Scattered Clouds,10,2013-06-30 04:35:00
11:55 PM,65.8,55.4,69,29.97,10.0,North,3.5,-,N/A,,Scattered Clouds,360,2013-06-30 04:55:00